K7JGC-9 Weather Reports


time (UTC)temp
F
wind
direction
speed
knots
gust
knots
rain 1hr
in
rain 24hr
in
rain mn
in
humidity
%
barometer
mb
20260503214740 90 342 0.0 0.0 0.00 0.00 0.00 42 1009.0
20260503211735 89 340 0.0 0.0 0.00 0.00 0.00 47 1009.4
20260503204735 88 335 0.0 0.0 0.00 0.00 0.00 47 1009.9
20260503201732 86 326 0.0 0.0 0.00 0.00 0.00 40 1010.3
20260503194731 82 334 0.0 0.0 0.00 0.00 0.00 50 1010.8
20260503191731 77 333 0.0 0.0 0.00 0.00 0.00 57 1011.0
20260503184727 75 333 0.0 0.0 0.00 0.00 0.00 59 1011.6
20260503181721 77 330 0.0 0.0 0.00 0.00 0.00 55 1012.0
20260503174720 74 337 0.0 0.0 0.00 0.00 0.00 60 1012.3
20260503171717 66 327 0.0 0.0 0.00 0.00 0.00 74 1012.4
20260503081629 56 341 0.0 0.0 0.00 0.00 0.00 92 1013.2
20260503071625 57 342 0.0 0.0 0.00 0.00 0.00 89 1013.1
20260503054614 59 342 0.0 0.0 0.00 0.00 0.00 85 1012.8
20260503051613 60 343 0.0 0.0 0.00 0.00 0.00 82 1013.1
20260503044613 61 343 0.0 0.0 0.00 0.00 0.00 80 1013.2
20260503041611 63 343 0.0 0.0 0.00 0.00 0.00 78 1013.2
20260503034606 64 343 0.0 0.0 0.00 0.00 0.00 75 1013.2
20260503031604 65 330 0.0 0.0 0.00 0.00 0.00 72 1012.8
20260503024602 66 325 0.0 0.0 0.00 0.00 0.00 70 1012.7
20260503021600 70 321 0.0 0.0 0.00 0.00 0.00 64 1012.4
20260503014557 71 339 0.0 0.0 0.00 0.00 0.00 67 1011.6
20260503011558 72 340 0.0 0.0 0.00 0.00 0.00 68 1011.6
20260503004556 73 339 0.0 0.0 0.00 0.00 0.00 61 1011.7
20260503001555 72 347 0.0 0.0 0.00 0.00 0.00 60 1011.8
20260502234553 71 332 0.0 0.0 0.00 0.00 0.00 62 1012.1
20260502231550 71 339 0.0 0.0 0.00 0.00 0.00 59 1012.2
20260502224545 69 343 0.0 0.0 0.00 0.00 0.00 62 1012.9
20260502221544 70 325 0.0 0.0 0.00 0.00 0.00 62 1013.5